FW5754 Weather Reports


Display with metric or nautical units.
time (UTC)temp
F
wind
direction
speed
MPH
gust
MPH
rain 1hr
in
rain 24hr
in
rain mn
in
humidity
%
barometer
mb
20260509205030 57 200 5.0 16.0 0.02 0.07 0.07 83 1012.2
20260509204549 57 257 5.0 16.0 0.02 0.06 0.06 83 1012.2
20260509204030 57 201 7.0 18.0 0.03 0.06 0.06 83 1012.2
20260509203531 57 229 8.0 18.0 0.05 0.06 0.06 83 1012.1
20260509203039 58 248 8.0 17.0 0.05 0.06 0.06 1012.1
20260509202530 58 219 7.0 18.0 0.05 0.06 0.06 84 1012.3
20260509202029 58 215 5.0 18.0 0.05 0.06 0.06 84 1012.2
20260509201537 58 191 3.0 17.0 0.05 0.06 0.06 84 1012.2
20260509201029 57 192 7.0 17.0 0.05 0.06 0.06 84 1012.1
20260509200555 -56 244 3.0 11.0 0.05 0.06 0.06 1012.2
20260509200043 57 238 4.0 11.0 0.06 0.06 0.06 82 1012.4
20260509195531 58 243 3.0 11.0 0.06 0.06 0.06 82 1012.3
20260509195029 58 211 3.0 16.0 0.05 0.05 0.05 82 1012.3
20260509194540 58 215 4.0 16.0 0.04 0.04 0.04 81 1012.3
20260509194030 59 191 7.0 18.0 0.03 0.03 0.03 80 1012.2
20260509193529 59 198 7.0 20.0 0.01 0.01 0.01 1012.3
20260509193045 59 210 8.0 20.0 0.01 0.01 0.01 79 1012.1
20260509192536 59 187 5.0 14.0 0.01 0.01 0.01 80 1011.9
20260509192031 59 197 5.0 15.0 0.01 0.01 0.01 80 1011.8
20260509191540 59 188 6.0 17.0 0.01 0.01 0.01 80 1011.9
20260509191035 59 160 8.0 18.0 0.01 0.01 0.01 79 1011.7
20260509190532 59 181 5.0 22.0 0.01 0.01 0.01 1011.7
20260509190038 -54 142 8.0 22.0 0.00 0.00 0.00 1011.8
20260509185531 -52 190 7.0 18.0 0.00 0.00 0.00 100 1011.9
20260509185032 60 182 6.0 18.0 0.00 0.00 0.00 75 1012.0
20260509184539 60 144 5.0 15.0 0.00 0.00 0.00 1011.7
20260509184031 -50 197 7.0 20.0 0.00 0.00 0.00 73 1011.8
20260509183531 61 177 8.0 20.0 0.00 0.00 0.00 1011.8
20260509183038 61 145 6.0 19.0 0.00 0.00 0.00 72 1011.7
20260509182529 60 163 8.0 15.0 0.00 0.00 0.00 73 1012.0
20260509182031 60 189 5.0 14.0 0.00 0.00 0.00 74 1011.9
20260509181538 60 190 5.0 14.0 0.00 0.00 0.00 74 1011.8
20260509181033 59 200 4.0 14.0 0.00 0.00 0.00 74 1011.9
20260509180533 59 186 3.0 20.0 0.00 0.00 0.00 74 1012.0
20260509180037 59 181 6.0 20.0 0.00 0.00 0.00 74 1012.1
20260509175531 60 143 7.0 17.0 0.00 0.00 0.00 74 1011.9
20260509175032 60 193 7.0 17.0 0.00 0.00 0.00 73 1011.9
20260509174551 61 196 5.0 18.0 0.00 0.00 0.00 73 1012.1
20260509174030 61 199 7.0 18.0 0.00 0.00 0.00 73 1012.1
20260509173531 61 239 5.0 14.0 0.00 0.00 0.00 74 1012.0
20260509173045 61 180 6.0 13.0 0.00 0.00 0.00 75 1012.1
20260509172533 60 160 4.0 17.0 0.00 0.00 0.00 75 1012.2
20260509172030 59 184 7.0 17.0 0.00 0.00 0.00 75 1012.3
20260509171539 59 136 8.0 17.0 0.00 0.00 0.00 74 1012.4
20260509171031 60 190 7.0 13.0 0.00 0.00 0.00 75 1012.5
20260509170531 60 162 6.0 15.0 0.00 0.00 0.00 74 1012.6
20260509170046 60 171 5.0 15.0 0.00 0.00 0.00 74 1012.6
20260509165531 -52 140 4.0 15.0 0.00 0.00 0.00 74 1012.6
20260509165033 -50 205 6.0 15.0 0.00 0.00 0.00 1012.6
20260509164546 -50 187 6.0 15.0 0.00 0.00 0.00 1012.7
20260509164030 -50 153 7.0 17.0 0.00 0.00 0.00 1012.5
20260509163529 158 171 6.0 17.0 0.00 0.00 0.00 100 1012.8
20260509163045 60 165 7.0 16.0 0.00 0.00 0.00 75 1012.7
20260509162530 59 148 7.0 15.0 0.00 0.00 0.00 75 1012.7
20260509162034 59 146 6.0 15.0 0.00 0.00 0.00 76 1012.9
20260509161537 58 192 5.0 16.0 0.00 0.00 0.00 76 1012.7
20260509161036 58 122 5.0 16.0 0.00 0.00 0.00 75 1012.8
20260509160530 -54 140 4.0 16.0 0.00 0.00 0.00 75 1012.9
20260509160038 58 192 6.0 16.0 0.00 0.00 0.00 75 1013.0
20260509155530 58 163 5.0 12.0 0.00 0.00 0.00 74 1013.0
20260509155034 59 191 5.0 14.0 0.00 0.00 0.00 74 1012.9
20260509154537 59 154 4.0 14.0 0.00 0.00 0.00 75 1013.0
20260509154032 58 150 5.0 12.0 0.00 0.00 0.00 75 1013.0
20260509153531 58 174 5.0 15.0 0.00 0.00 0.00 75 1013.2
20260509153037 58 190 4.0 16.0 0.00 0.00 0.00 75 1013.2
20260509152531 58 150 7.0 16.0 0.00 0.00 0.00 75 1013.3
20260509152031 58 179 4.0 14.0 0.00 0.00 0.00 75 1013.2
20260509151545 58 153 7.0 14.0 0.00 0.00 0.00 75 1013.2
20260509151033 58 167 6.0 14.0 0.00 0.00 0.00 76 1013.2
20260509150530 58 164 4.0 14.0 0.00 0.00 0.00 76 1013.1
20260509150039 58 167 5.0 12.0 0.00 0.00 0.00 76 1013.0
20260509145534 58 165 5.0 14.0 0.00 0.00 0.00 76 1013.1
20260509145033 57 166 5.0 14.0 0.00 0.00 0.00 75 1013.3
20260509144559 57 168 4.0 12.0 0.00 0.00 0.00 75 1013.3
20260509144030 58 177 3.0 13.0 0.00 0.00 0.00 75 1013.3
20260509143532 58 175 5.0 13.0 0.00 0.00 0.00 74 1013.4
20260509143039 58 174 2.0 12.0 0.00 0.00 0.00 75 1013.4
20260509142529 57 173 3.0 14.0 0.00 0.00 0.00 75 1013.2
20260509142031 57 173 5.0 14.0 0.00 0.00 0.00 74 1013.2
20260509141543 57 186 3.0 10.0 0.00 0.00 0.00 74 1013.2
20260509141031 57 186 4.0 15.0 0.00 0.00 0.00 74 1013.3
20260509140531 57 186 3.0 15.0 0.00 0.00 0.00 74 1013.3
20260509140057 58 183 5.0 10.0 0.00 0.00 0.00 74 1013.3
20260509135531 58 180 5.0 10.0 0.00 0.00 0.00 73 1013.4
20260509135031 59 192 5.0 9.0 0.00 0.00 0.00 73 1013.3
20260509134546 59 195 4.0 9.0 0.00 0.00 0.00 73 1013.4
20260509134032 59 198 5.0 9.0 0.00 0.00 0.00 72 1013.3
20260509133530 59 0 3.0 8.0 0.00 0.00 0.00 72 1013.4
20260509133039 60 200 3.0 8.0 0.00 0.00 0.00 72 1013.4
20260509132530 60 200 4.0 8.0 0.00 0.00 0.00 72 1013.4
20260509132030 60 203 3.0 8.0 0.00 0.00 0.00 72 1013.4
20260509131555 60 205 3.0 8.0 0.00 0.00 0.00 72 1013.4
20260509131029 60 205 3.0 8.0 0.00 0.00 0.00 72 1013.4
20260509130533 -52 203 1.0 5.0 0.00 0.00 0.00 1013.3
20260509130051 59 203 1.0 4.0 0.00 0.00 0.00 76 1013.5
20260509125530 58 203 1.0 6.0 0.00 0.00 0.00 76 1013.5
20260509125029 58 203 1.0 6.0 0.00 0.00 0.00 77 1013.5
20260509124544 57 203 1.0 5.0 0.00 0.00 0.00 78 1013.6
20260509124029 57 0 1.0 4.0 0.00 0.00 0.00 79 1013.4
20260509123530 57 203 0.0 4.0 0.00 0.00 0.00 79 1013.6
20260509123042 56 203 0.0 4.0 0.00 0.00 0.00 80 1013.8
20260509122528 56 0 1.0 4.0 0.00 0.00 0.00 80 1013.6
20260509122033 56 0 0.0 3.0 0.00 0.00 0.00 81 1013.8
20260509121557 55 0 0.0 6.0 0.00 0.00 0.00 82 1013.9
20260509121033 55 0 1.0 6.0 0.00 0.00 0.00 82 1013.8
20260509120534 55 203 1.0 5.0 0.00 0.00 0.00 82 1013.9
20260509120047 54 203 2.0 7.0 0.00 0.00 0.00 82 1013.9
20260509115530 54 203 2.0 8.0 0.00 0.00 0.00 82 1014.0
20260509115030 54 203 4.0 8.0 0.00 0.00 0.00 83 1013.8
20260509114545 54 205 3.0 7.0 0.00 0.00 0.00 83 1013.8
20260509114031 54 205 3.0 9.0 0.00 0.00 0.00 83 1013.9
20260509113534 53 206 3.0 9.0 0.00 0.00 0.00 83 1013.8
20260509113050 -63 208 3.0 7.0 0.00 0.00 0.00 83 1013.8
20260509112534 53 208 2.0 7.0 0.00 0.00 0.00 100 1013.9
20260509112031 53 208 2.0 7.0 0.00 0.00 0.00 84 1013.9
20260509111541 53 0 2.0 7.0 0.00 0.00 0.00 84 1014.0
20260509111033 52 209 3.0 7.0 0.00 0.00 0.00 84 1013.7
20260509110531 -66 209 2.0 6.0 0.00 0.00 0.00 1013.8
20260509110040 52 209 2.0 5.0 0.00 0.00 0.00 84 1013.9
20260509105531 52 209 0.0 4.0 0.00 0.00 0.00 84 1013.7
20260509105031 52 0 1.0 3.0 0.00 0.00 0.00 84 1013.6
20260509104535 52 0 0.0 2.0 0.00 0.00 0.00 84 1013.6
20260509104030 51 0 0.0 0.0 0.00 0.00 0.00 84 1013.6
20260509103534 51 0 0.0 0.0 0.00 0.00 0.00 84 1013.7
20260509103044 51 0 0.0 0.0 0.00 0.00 0.00 84 1013.6
20260509102534 51 0 0.0 0.0 0.00 0.00 0.00 84 1013.6
20260509102032 52 0 0.0 0.0 0.00 0.00 0.00 84 1013.5
20260509101545 51 0 0.0 0.0 0.00 0.00 0.00 84 1013.6
20260509101032 51 0 0.0 1.0 0.00 0.00 0.00 83 1013.7
20260509100532 51 0 0.0 4.0 0.00 0.00 0.00 83 1013.6
20260509100044 51 0 1.0 4.0 0.00 0.00 0.00 83 1013.3
20260509095533 51 209 0.0 1.0 0.00 0.00 0.00 83 1013.3
20260509095031 52 0 0.0 0.0 0.00 0.00 0.00 83 1013.4
20260509094545 52 0 0.0 0.0 0.00 0.00 0.00 83 1013.5
20260509094030 52 0 0.0 0.0 0.00 0.00 0.00 1013.5
20260509093531 52 0 0.0 1.0 0.00 0.00 0.00 82 1013.5
20260509093044 52 0 0.0 1.0 0.00 0.00 0.00 82 1013.5
20260509092534 52 0 0.0 4.0 0.00 0.00 0.00 82 1013.5
20260509092038 52 0 0.0 4.0 0.00 0.00 0.00 82 1013.6
20260509091545 52 0 2.0 4.0 0.00 0.00 0.00 82 1013.8
20260509091034 52 209 0.0 4.0 0.00 0.00 0.00 82 1013.6
20260509090534 51 0 0.0 4.0 0.00 0.00 0.00 82 1013.5
20260509090101 51 209 1.0 3.0 0.00 0.00 0.00 82 1013.4
20260509085534 51 0 0.0 0.0 0.00 0.00 0.00 81 1013.2
20260509085034 52 0 0.0 3.0 0.00 0.00 0.00 81 1013.1
20260509084544 -68 0 0.0 3.0 0.00 0.00 0.00 1013.1
20260509084031 -68 209 0.0 3.0 0.00 0.00 0.00 81 1013.1
20260509083533 52 0 0.0 2.0 0.00 0.00 0.00 81 1013.2
20260509083051 52 0 0.0 2.0 0.00 0.00 0.00 81 1013.3
20260509082531 52 0 0.0 2.0 0.00 0.00 0.00 81 1013.3
20260509082031 52 0 0.0 3.0 0.00 0.00 0.00 81 1013.3
20260509081544 52 0 0.0 3.0 0.00 0.00 0.00 81 1013.4
20260509081035 52 0 0.0 3.0 0.00 0.00 0.00 81 1013.3
20260509080534 52 0 1.0 3.0 0.00 0.00 0.00 81 1013.3
20260509080058 52 0 0.0 3.0 0.00 0.00 0.00 80 1013.3
20260509075534 52 0 0.0 3.0 0.00 0.00 0.00 80 1013.4
20260509075034 52 209 0.0 3.0 0.00 0.00 0.00 81 1013.3
20260509074544 52 0 0.0 3.0 0.00 0.00 0.00 81 1013.2
20260509074034 52 0 0.0 2.0 0.00 0.00 0.00 81 1013.2
20260509073534 52 0 0.0 3.0 0.00 0.00 0.00 80 1013.3
20260509073045 52 0 0.0 3.0 0.00 0.00 0.00 81 1013.4
20260509072535 52 209 1.0 3.0 0.00 0.00 0.00 81 1013.5
20260509072031 -68 0 0.0 4.0 0.00 0.00 0.00 81 1013.5
20260509071538 52 0 1.0 4.0 0.00 0.00 0.00 81 1013.5
20260509071031 52 0 0.0 4.0 0.00 0.00 0.00 81 1013.5
20260509070531 52 209 1.0 5.0 0.00 0.00 0.00 81 1013.5
20260509070041 52 0 0.0 5.0 0.00 0.00 0.00 81 1013.6
20260509065530 52 209 0.0 4.0 0.00 0.00 0.00 81 1013.6
20260509065030 52 0 0.0 2.0 0.00 0.00 0.00 81 1013.6
20260509064543 52 0 0.0 2.0 0.00 0.00 0.00 81 1013.7
20260509064030 52 0 0.0 0.0 0.00 0.00 0.00 81 1013.7
20260509063533 -68 0 0.0 3.0 0.00 0.00 0.00 1013.7
20260509063037 52 0 0.0 3.0 0.00 0.00 0.00 81 1013.7
20260509062533 -68 209 1.0 5.0 0.00 0.00 0.00 80 1013.6
20260509062034 52 209 1.0 5.0 0.00 0.00 0.00 80 1013.7
20260509061545 -68 0 0.0 3.0 0.00 0.00 0.00 1013.7
20260509061030 52 0 0.0 3.0 0.00 0.00 0.00 80 1013.6
20260509060531 52 209 1.0 4.0 0.00 0.00 0.00 80 1013.6
20260509060043 52 0 1.0 5.0 0.00 0.00 0.00 79 1013.6
20260509055532 53 209 2.0 7.0 0.00 0.00 0.00 79 1013.7
20260509055032 53 209 2.0 7.0 0.00 0.00 0.00 79 1013.8
20260509054539 52 209 0.0 3.0 0.00 0.00 0.00 78 1013.7
20260509054030 52 0 0.0 0.0 0.00 0.00 0.00 78 1013.7
20260509053531 52 0 0.0 0.0 0.00 0.00 0.00 78 1013.8
20260509053110 52 0 0.0 0.0 0.00 0.00 0.00 78 1013.9
20260509052531 -66 0 0.0 0.0 0.00 0.00 0.00 1013.8
20260509052030 -66 0 0.0 0.0 0.00 0.00 0.00 100 1013.8
20260509051543 52 0 0.0 0.0 0.00 0.00 0.00 77 1013.8
20260509051030 52 0 0.0 0.0 0.00 0.00 0.00 77 1013.7
20260509050532 53 0 0.0 0.0 0.00 0.00 0.00 77 1013.8
20260509050044 53 0 0.0 0.0 0.00 0.00 0.00 76 1013.7
20260509045530 53 0 0.0 0.0 0.00 0.00 0.00 76 1013.8
20260509045030 53 0 0.0 0.0 0.00 0.00 0.00 76 1013.7
20260509044544 53 0 0.0 0.0 0.00 0.00 0.00 76 1013.7
20260509044030 53 0 0.0 0.0 0.00 0.00 0.00 76 1013.7
20260509043530 53 0 0.0 0.0 0.00 0.00 0.00 76 1013.9
20260509043103 53 0 0.0 0.0 0.00 0.00 0.00 76 1013.9
20260509042530 53 0 0.0 4.0 0.00 0.00 0.00 76 1013.9
20260509042038 53 0 0.0 4.0 0.00 0.00 0.00 76 1014.0
20260509041557 53 209 1.0 5.0 0.00 0.00 0.00 76 1013.9
20260509041034 53 0 1.0 7.0 0.00 0.00 0.00 76 1014.1
20260509040534 53 209 1.0 7.0 0.00 0.00 0.00 76 1013.9
20260509040054 53 209 2.0 7.0 0.00 0.00 0.00 1013.8
20260509035534 53 209 1.0 8.0 0.00 0.00 0.00 76 1014.0
20260509035034 53 209 2.0 8.0 0.00 0.00 0.00 76 1013.9
20260509034554 53 0 1.0 6.0 0.00 0.00 0.00 76 1013.8
20260509034030 53 0 2.0 7.0 0.00 0.00 0.00 76 1013.8
20260509033531 53 209 1.0 7.0 0.00 0.00 0.00 77 1013.8
20260509033039 53 209 0.0 6.0 0.00 0.00 0.00 77 1013.9
20260509032531 53 209 1.0 6.0 0.00 0.00 0.00 77 1013.9
20260509032030 53 209 1.0 6.0 0.00 0.00 0.00 77 1013.9
20260509031601 52 209 1.0 5.0 0.00 0.00 0.00 77 1013.9
20260509031034 52 0 0.0 5.0 0.00 0.00 0.00 77 1014.0
20260509030534 52 0 1.0 6.0 0.00 0.00 0.00 77 1013.8
20260509030049 52 0 1.0 6.0 0.00 0.00 0.00 77 1013.8
20260509025535 52 209 0.0 5.0 0.00 0.00 0.00 77 1013.8
20260509025034 52 209 1.0 5.0 0.00 0.00 0.00 77 1013.8
20260509024541 -68 0 2.0 4.0 0.00 0.00 0.00 1013.9
20260509024034 -68 0 1.0 5.0 0.00 0.00 0.00 1013.9
20260509023534 51 209 1.0 5.0 0.00 0.00 0.00 77 1013.8
20260509023039 51 209 2.0 6.0 0.00 0.00 0.00 78 1013.8
20260509022531 -68 209 1.0 7.0 0.00 0.00 0.00 78 1013.7
20260509022031 -68 209 1.0 7.0 0.00 0.00 0.00 1013.9
20260509021537 52 209 2.0 6.0 0.00 0.00 0.00 78 1013.9
20260509021036 52 209 1.0 9.0 0.00 0.00 0.00 78 1013.9
20260509020537 52 209 3.0 9.0 0.00 0.00 0.00 78 1013.9
20260509020047 52 209 2.0 8.0 0.00 0.00 0.00 78 1013.9
20260509015534 52 209 3.0 8.0 0.00 0.00 0.00 78 1013.8
20260509015033 52 209 2.0 8.0 0.00 0.00 0.00 78 1013.6
20260509014551 52 209 3.0 8.0 0.00 0.00 0.00 78 1013.7
20260509014030 52 209 1.0 9.0 0.00 0.00 0.00 78 1013.6
20260509013530 -66 209 3.0 12.0 0.00 0.00 0.00 78 1013.5
20260509013051 53 209 2.0 12.0 0.00 0.00 0.00 1013.2
20260509012530 53 222 2.0 10.0 0.00 0.00 0.00 76 1013.3
20260509012034 53 0 2.0 10.0 0.00 0.00 0.00 75 1013.2
20260509011553 -66 236 2.0 9.0 0.00 0.00 0.00 74 1013.1
20260509011035 54 238 2.0 10.0 0.00 0.00 0.00 100 1013.0
20260509010536 54 238 2.0 10.0 0.00 0.00 0.00 73 1013.0
20260509010051 54 238 3.0 10.0 0.00 0.00 0.00 73 1012.9
20260509005534 -63 240 2.0 8.0 0.00 0.00 0.00 1012.9
20260509005031 54 240 3.0 7.0 0.00 0.00 0.00 72 1012.8
20260509004539 54 240 2.0 7.0 0.00 0.00 0.00 72 1012.6
20260509004034 55 240 2.0 6.0 0.00 0.00 0.00 72 1012.5
20260509003534 -61 240 2.0 7.0 0.00 0.00 0.00 71 1012.4
20260509003040 -61 240 2.0 7.0 0.00 0.00 0.00 71 1012.3
20260509002533 55 240 1.0 9.0 0.00 0.00 0.00 70 1012.3
20260509002030 56 240 3.0 9.0 0.00 0.00 0.00 69 1012.2
20260509001538 56 244 2.0 5.0 0.00 0.00 0.00 68 1012.3
20260509001032 56 244 2.0 5.0 0.00 0.00 0.00 68 1012.2
20260509000534 56 0 1.0 5.0 0.00 0.00 0.00 67 1012.2
20260509000043 56 0 1.0 4.0 0.00 0.00 0.00 1012.3
20260508235534 56 244 1.0 9.0 0.00 0.00 0.00 66 1012.1
20260508235034 57 244 1.0 9.0 0.00 0.00 0.00 1011.9
20260508234544 57 244 3.0 9.0 0.00 0.00 0.00 64 1011.9
20260508234034 -59 247 4.0 13.0 0.00 0.00 0.00 1012.0
20260508233534 -59 250 5.0 15.0 0.00 0.00 0.00 1011.9
20260508233040 -59 239 5.0 17.0 0.00 0.00 0.00 1011.8
20260508232533 -59 263 7.0 17.0 0.00 0.00 0.00 1011.7
20260508232036 56 214 5.0 16.0 0.00 0.00 0.00 64 1011.7
20260508231535 56 261 6.0 15.0 0.00 0.00 0.00 64 1011.7
20260508231034 56 263 6.0 15.0 0.00 0.00 0.00 64 1011.6
20260508230531 57 254 5.0 12.0 0.00 0.00 0.00 64 1011.6
20260508230053 57 240 4.0 10.0 0.00 0.00 0.00 64 1011.6
20260508225530 57 244 5.0 12.0 0.00 0.00 0.00 63 1011.5
20260508225031 -56 244 5.0 12.0 0.00 0.00 0.00 62 1011.5
20260508224545 58 251 4.0 12.0 0.00 0.00 0.00 62 1011.4
20260508224034 57 248 4.0 12.0 0.00 0.00 0.00 63 1011.4
20260508223534 57 260 5.0 12.0 0.00 0.00 0.00 63 1011.4
20260508223045 57 261 5.0 13.0 0.00 0.00 0.00 64 1011.5
20260508222534 56 267 6.0 14.0 0.00 0.00 0.00 67 1011.6
20260508222034 -61 258 9.0 15.0 0.00 0.00 0.00 1011.7
20260508221551 -63 300 9.0 15.0 0.00 0.00 0.00 1011.7
20260508221033 -63 296 11.0 15.0 0.00 0.00 0.00 1011.6
20260508220532 55 323 5.0 10.0 0.00 0.00 0.00 78 1011.6
20260508220046 55 323 5.0 10.0 0.00 0.00 0.00 77 1011.6
20260508215532 56 328 4.0 8.0 0.00 0.00 0.00 78 1011.6
20260508215034 56 329 4.0 6.0 0.00 0.00 0.00 77 1011.5
20260508214544 56 331 4.0 6.0 0.00 0.00 0.00 76 1011.4
20260508214032 56 331 3.0 5.0 0.00 0.00 0.00 76 1011.4
20260508213533 -61 331 2.0 4.0 0.00 0.00 0.00 1011.3
20260508213045 55 331 2.0 5.0 0.00 0.00 0.00 75 1011.3
20260508212531 -61 331 2.0 5.0 0.00 0.00 0.00 1011.4
20260508212030 55 331 3.0 5.0 0.00 0.00 0.00 100 1011.5
20260508211543 55 331 3.0 5.0 0.00 0.00 0.00 75 1011.4
20260508211034 -63 331 3.0 5.0 0.00 0.00 0.00 1011.4
20260508210536 54 331 2.0 9.0 0.00 0.00 0.00 79 1011.4
20260508210042 53 331 4.0 11.0 0.00 0.00 0.00 79 1011.2
20260508205533 53 331 8.0 15.0 0.00 0.00 0.00 78 1011.4